Regional Weather Roundup
Issued by NWS Goodland, KS

Home | Current Version | Previous Version | Graphics & Text | Print | Product List | Glossary On
Versions: 1 2 3 4 5 6 7 8 9 10 11 12 13 14 15 16 17 18 19 20 21 22 23 24 25 26 27 28 29 30 31 32 33 34 35 36 37 38 39 40 41 42 43 44 45 46 47 48 49 50
000
ASUS43 KGLD 231959
RWRGLD

GOODLAND FORECAST AREA HOURLY WEATHER ROUNDUP
NATIONAL WEATHER SERVICE GOODLAND KS
200 PM MDT WED MAY 23 2018

...OFFICIAL OBSERVATIONS...

CITY           SKY/WX    TMP DP  RH WIND       PRES   REMARKS
GOODLAND KS    PTSUNNY   82  56  40 S22G32    29.97F
HILL CITY KS   MOSUNNY   86  63  45 S16G24    29.97F
IMPERIAL NEB   MOSUNNY   86  51  29 S20G32    29.94F
MCCOOK NEB     PTSUNNY   84  59  42 SE16G25   29.96F
AKRON CO       MOSUNNY   81  53  37 S15G22    29.96F
BURLINGTON CO  PTSUNNY   85  52  32 S26G39    29.98F
LIMON CO       SUNNY     82  38  20 S21G35    30.00F
$$

...UNOFFICIAL OBSERVATIONS...

CITY           SKY/WX    TMP DP  RH WIND       PRES   REMARKS
NORTON KS      MOSUNNY   90  55  31 SE18G25   29.98
SHARON SPRINGS   N/A     84  56  37 MISG        N/A
KIT CARSON CO    N/A     83  52  34 MISG        N/A
YUMA CO        FAIR      81  52  36 S18       29.95F
$$




USA.gov is the U.S. government's official web portal to all federal, state and local government web resources and services.